[[{"header":{"parameterUnit":"m.s-1","parameterCategory":1,"la1":30.2991,"la2":30.254,"lo1":-89.0895,"lo2":-89.0444,"dy":0.0017,"dx":0.0017,"nx":28,"ny":28,"refTime":"2024-09-25T09:00:00:Z","depth":0,"parameterNumber":2,"parameterNumberName":"U-component_of_WINDS"},"data":[0,0,0,0,0,0,0,0,0,0,0,0,0,0,0,0,0,0,0,0,0,0,0,0,0,0,0,0,0,0,0,0,0,0,0,0,0,0,0,0,0,0,0,0,0,0,0,0,0,0,0,0,0,0,0,0,0,0,0.8496,0.8496,0,0.8485,0.8485,0.8484,0.8457,0.8457,0.8456,0.8456,0.8444,0.8444,0.8444,0,0,0,0,0,0,0,0,0,0,0,0,0,0.8493,0.8493,0.8496,0.8496,0.8496,0.8485,0.8485,0.8484,0.8457,0.8457,0.8456,0.8455,0.8444,0.8444,0.8444,0,0,0,0,0,0,0,0,0,0,0,0,0,0.8489,0.8493,0.8496,0.8481,0.848,0.8485,0.8485,0.8484,0.8458,0.8457,0.8456,0.8455,0.8444,0.8444,0.8444,0.8463,0,0,0.8445,0.8445,0,0,0,0,0,0,0,0,0.849,0.849,0.8483,0.8482,0.848,0.8472,0.8479,0.8477,0.8458,0.8466,0.8456,0.8455,0.8454,0.8453,0.8453,0.8462,0.8462,0.8445,0.8445,0.8445,0.8446,0,0,0,0,0,0,0,0.849,0.849,0.8492,0.8483,0.8481,0.8474,0.8473,0.8479,0.8465,0.8465,0.8463,0.8462,0.8453,0.8453,0.8452,0.8462,0.8445,0.8445,0.8446,0.8446,0.8484,0.8485,0,0,0,0,0,0,0.8493,0.849,0.8492,0.8491,0.8483,0.8475,0.8474,0.8475,0.8465,0.8462,0.8463,0.8461,0.8452,0.8452,0.8452,0.8472,0.8445,0.8446,0.8446,0.8484,0.8485,0.8486,0,0,0,0,0,0,0.8493,0.8493,0.8492,0.849,0.849,0.8476,0.8478,0.8476,0.8475,0.8463,0.846,0.8465,0.8452,0.8451,0.846,0.8471,0.8446,0.8446,0.8483,0.8484,0.8485,0.8512,0,0,0,0,0,0,0.8493,0.8493,0.85,0.8491,0.849,0.8501,0.8479,0.8476,0.8476,0.8473,0.8464,0.8462,0.8451,0.846,0.846,0.8471,0.8446,0.8482,0.8483,0.8485,0.851,0.8514,0.8518,0,0,0,0,0,0.8493,0.8509,0.8501,0.8501,0.8499,0.8502,0.8501,0.8488,0.8477,0.8484,0.8476,0.8462,0.847,0.8461,0.8461,0.8472,0.8481,0.8483,0.8485,0.8509,0.8514,0.8518,0,0,0,0,0,0,0.852,0.8507,0.8498,0.8512,0.8508,0.8497,0.8506,0.8494,0.8494,0.8491,0.8475,0.8473,0.8484,0.8479,0.8469,0.8489,0.8473,0.8475,0.8491,0.8496,0.85,0.85,0.8447,0,0,0,0,0,0.8528,0.8532,0.852,0.8534,0.8532,0.8519,0.852,0.8511,0.8506,0.8504,0.8497,0.8492,0.8494,0.8495,0.8495,0.851,0.8507,0.8518,0.8521,0.8525,0.8526,0.8532,0.8536,0.8492,0.8492,0.8492,0,0,0.8544,0.8537,0.8541,0.8539,0.8535,0.8539,0.8518,0.8523,0.8526,0.8505,0.8512,0.8507,0.8501,0.8512,0.8517,0.8509,0.8538,0.8527,0.853,0.8529,0.8534,0.8538,0.8542,0.8493,0.8493,0.8493,0,0,0.8575,0.8571,0.858,0.8577,0.8571,0.8562,0.8564,0.8555,0.855,0.8558,0.8541,0.8544,0.8547,0.8543,0.8541,0.857,0.8557,0.8571,0.8589,0.8595,0.8599,0.8602,0.861,0.8614,0.8572,0.8573,0.8573,0,0.8595,0.86,0.8587,0.8592,0.8591,0.8573,0.8582,0.8579,0.8574,0.8573,0.8564,0.8566,0.8561,0.8571,0.8578,0.8578,0.8579,0.8571,0.8599,0.8602,0.8605,0.8613,0.8616,0.8574,0.8574,0.8574,0.8574,0,0.8625,0.8629,0.8637,0.8632,0.8632,0.864,0.8627,0.8628,0.8619,0.8611,0.8618,0.8611,0.8609,0.8611,0.8602,0.8619,0.8613,0.8602,0.8586,0.8611,0.8618,0.8621,0.8576,0.8576,0.8575,0.8575,0,0,0.8672,0.8659,0.8662,0.8659,0.8651,0.8653,0.866,0.8658,0.8659,0.8656,0.866,0.8662,0.8651,0.865,0.864,0.8645,0.8666,0.8633,0.8633,0.8638,0.8683,0.869,0.8694,0.8658,0.8659,0.8659,0.8682,0,0.8699,0.8709,0.8697,0.8709,0.8712,0.8694,0.8699,0.8695,0.8687,0.8688,0.868,0.8682,0.8668,0.8667,0.8671,0.8663,0.8675,0.8661,0.8661,0.8661,0.8661,0.8698,0.8706,0.8728,0.8685,0.8686,0.8686,0,0.8732,0.873,0.8743,0.8732,0.8733,0.8738,0.8735,0.8736,0.873,0.8725,0.8722,0.871,0.8715,0.87,0.8706,0.8697,0.8696,0.8692,0.8692,0.8691,0.8674,0.8695,0.8735,0.8737,0.8691,0.869,0.869,0,0.8763,0.8764,0.8771,0.8769,0.8758,0.8761,0.8757,0.875,0.8749,0.8747,0.8746,0.8744,0.8742,0.8741,0.8728,0.8719,0.8735,0.8719,0.8729,0.8729,0.8732,0.8732,0.877,0.8734,0.8734,0.8734,0.8734,0,0.8794,0.8801,0.8784,0.8788,0.8796,0.8782,0.879,0.8784,0.8778,0.878,0.8766,0.8768,0.8752,0.8752,0.8743,0.8748,0.8748,0.8743,0.874,0.8743,0.8744,0.8741,0.8739,0.8735,0.8735,0.8735,0.8735,0,0.8829,0.8818,0.8824,0.8813,0.881,0.8817,0.8807,0.881,0.8802,0.8805,0.8805,0.8792,0.8791,0.8779,0.8776,0.877,0.8778,0.8773,0.878,0.8778,0.8788,0.8786,0.8825,0.8829,0.8792,0.8792,0.8793,0,0.8848,0.8854,0.8843,0.8844,0.884,0.8841,0.884,0.8826,0.8826,0.8819,0.8822,0.8821,0.8819,0.8819,0.8809,0.8806,0.88,0.8814,0.88,0.8802,0.8798,0.8798,0.8797,0.8816,0.8817,0.8817,0.8818,0,0.8883,0.8877,0.8877,0.8874,0.8873,0.887,0.8866,0.8868,0.8852,0.8853,0.8852,0.885,0.8847,0.8845,0.8841,0.8836,0.8824,0.8822,0.8824,0.8827,0.883,0.8827,0.8787,0.8821,0.8821,0.8821,0.882,0.882,0.891,0.8914,0.8906,0.8906,0.8902,0.8898,0.89,0.8892,0.8891,0.8887,0.888,0.888,0.8873,0.8866,0.8861,0.8861,0.8854,0.8857,0.8858,0.8858,0.8859,0.8831,0.886,0.886,0.886,0.886,0.886,0,0.8943,0.8937,0.8937,0.8932,0.8931,0.8921,0.8916,0.8916,0.8916,0.8911,0.8909,0.8907,0.8905,0.8895,0.8892,0.8894,0.8888,0.8893,0.8892,0.8891,0.8867,0.8865,0.8897,0.8897,0.8897,0.8897,0.8897,0.8897,0.896,0.8965,0.8958,0.896,0.8955,0.8955,0.8953,0.8949,0.8945,0.8944,0.8942,0.8936,0.8928,0.8924,0.8921,0.8918,0.8917,0.8924,0.8919,0.8896,0.8892,0.8889,0.8887,0.8924,0.8924,0.8942,0.8942,0.8943]},{"header":{"parameterUnit":"m.s-1","parameterCategory":1,"la1":30.2991,"la2":30.254,"lo1":-89.0895,"lo2":-89.0444,"dy":0.0017,"dx":0.0017,"nx":28,"ny":28,"refTime":"2024-09-25T09:00:00:Z","depth":0,"parameterNumber":3,"parameterNumberName":"V-component_of_WINDS"},"data":[0,0,0,0,0,0,0,0,0,0,0,0,0,0,0,0,0,0,0,0,0,0,0,0,0,0,0,0,0,0,0,0,0,0,0,0,0,0,0,0,0,0,0,0,0,0,0,0,0,0,0,0,0,0,0,0,0,0,0.999,0.9989,0,0.9956,0.9955,0.9955,0.9898,0.9897,0.9896,0.9895,0.9861,0.9862,0.9862,0,0,0,0,0,0,0,0,0,0,0,0,0,1.0006,1.0006,0.999,0.9989,0.9989,0.9956,0.9955,0.9955,0.9899,0.9897,0.9896,0.9895,0.9861,0.9862,0.9862,0,0,0,0,0,0,0,0,0,0,0,0,0,0.9988,1.0006,0.999,0.9957,0.9953,0.9956,0.9955,0.9955,0.9899,0.9897,0.9896,0.9894,0.9861,0.9862,0.9862,0.9894,0,0,0.9862,0.9862,0,0,0,0,0,0,0,0,0.9989,0.9987,0.9962,0.9959,0.9955,0.993,0.9948,0.9934,0.9899,0.992,0.9895,0.9893,0.9886,0.9884,0.9881,0.9892,0.9891,0.9862,0.9862,0.9862,0.9862,0,0,0,0,0,0,0,0.999,0.9989,0.9976,0.9962,0.9958,0.9944,0.9939,0.9946,0.9912,0.9918,0.9914,0.991,0.9883,0.9881,0.9879,0.989,0.9862,0.9862,0.9862,0.9862,0.9925,0.9927,0,0,0,0,0,0,0.9996,0.999,0.9977,0.9975,0.9969,0.9945,0.994,0.994,0.9912,0.9906,0.9912,0.9908,0.9881,0.9879,0.9878,0.9913,0.9862,0.9862,0.9862,0.9923,0.9925,0.9927,0,0,0,0,0,0,0.9997,0.9996,0.9979,0.9981,0.9978,0.9946,0.9946,0.994,0.9937,0.9907,0.9901,0.9915,0.988,0.9878,0.989,0.9911,0.9862,0.9862,0.9922,0.9924,0.9926,0.9983,0,0,0,0,0,0,0.9998,0.9996,1.0008,0.9982,0.9978,0.9991,0.9947,0.994,0.9937,0.9932,0.9909,0.9903,0.9879,0.989,0.989,0.991,0.9862,0.992,0.9923,0.9926,0.9979,0.9987,0.9994,0,0,0,0,0,0.9998,1.0026,1.0009,1.0008,0.9993,0.9993,0.9991,0.9961,0.9939,0.9951,0.9931,0.9904,0.9909,0.9892,0.9891,0.9912,0.9918,0.9922,0.9925,0.9976,0.9985,0.9994,0,0,0,0,0,0,1.0056,1.0022,1.0003,1.0023,1.0011,0.9983,0.9997,0.9973,0.9967,0.9962,0.9927,0.9922,0.9938,0.9926,0.9908,0.994,0.9909,0.9913,0.9948,0.9957,0.9964,0.9966,0.9863,0,0,0,0,0,1.0071,1.0074,1.0044,1.0065,1.006,1.003,1.0029,1.0007,0.9993,0.9988,0.997,0.9957,0.9956,0.9956,0.9953,0.9977,0.9971,0.9991,0.9998,1.0005,1.0008,1.0018,1.0027,0.9939,0.9939,0.9939,0,0,1.0103,1.0084,1.0088,1.0076,1.0064,1.0068,1.0026,1.0032,1.0034,0.9989,0.9999,0.9985,0.9969,0.9987,0.9994,0.9977,1.0031,1.0009,1.0014,1.0014,1.0023,1.0031,1.0039,0.9941,0.9941,0.9941,0,0,1.0161,1.0148,1.0163,1.0152,1.0134,1.0113,1.0117,1.0093,1.0081,1.0091,1.0057,1.0059,1.0057,1.0047,1.0041,1.0095,1.0069,1.0095,1.0133,1.0144,1.0151,1.0157,1.0174,1.0181,1.0099,1.0099,1.0099,0,1.0202,1.0205,1.0174,1.0181,1.0176,1.0136,1.015,1.0141,1.0124,1.0121,1.0103,1.0099,1.0086,1.01,1.0113,1.011,1.0113,1.0097,1.0152,1.0158,1.0163,1.0179,1.0186,1.0102,1.0102,1.0101,1.0101,0,1.0256,1.0259,1.0273,1.0257,1.0254,1.0265,1.0234,1.0235,1.0214,1.0195,1.0205,1.0187,1.0179,1.0181,1.0161,1.0192,1.0182,1.0159,1.0126,1.0175,1.019,1.0196,1.0106,1.0105,1.0104,1.0104,0,0,1.035,1.0315,1.032,1.0312,1.0289,1.0291,1.03,1.0291,1.0292,1.0282,1.0287,1.0287,1.0264,1.0258,1.0236,1.0246,1.0288,1.0221,1.022,1.0233,1.0319,1.0336,1.0344,1.0271,1.0272,1.0273,1.032,0,1.0402,1.0415,1.0386,1.0406,1.0408,1.0369,1.0377,1.0364,1.0346,1.0345,1.0326,1.0326,1.0297,1.0293,1.0301,1.0281,1.0304,1.0277,1.0275,1.0275,1.0279,1.0352,1.037,1.0416,1.0326,1.0327,1.0328,0,1.0465,1.0457,1.0477,1.0451,1.0451,1.0459,1.0448,1.0448,1.0432,1.0418,1.0411,1.0385,1.0392,1.0361,1.0369,1.0351,1.0349,1.0339,1.034,1.0338,1.0304,1.0351,1.043,1.0437,1.0337,1.0336,1.0335,0,1.053,1.0524,1.0534,1.0528,1.05,1.0505,1.0494,1.0476,1.0473,1.0464,1.0461,1.0453,1.0449,1.0443,1.0415,1.0396,1.0426,1.0393,1.0414,1.0415,1.0422,1.0422,1.0501,1.0422,1.0422,1.0422,1.0422,0,1.0591,1.0604,1.0562,1.0569,1.0583,1.0549,1.0564,1.0548,1.0533,1.0535,1.0502,1.0505,1.0468,1.0467,1.0446,1.0455,1.0454,1.0442,1.0436,1.0445,1.0446,1.0442,1.0438,1.0424,1.0424,1.0423,1.0423,0,1.0665,1.0638,1.0646,1.0618,1.0611,1.0623,1.0598,1.0603,1.0583,1.0587,1.0586,1.0555,1.0552,1.0524,1.0515,1.0501,1.0517,1.0506,1.0523,1.0518,1.054,1.0538,1.0619,1.0627,1.0545,1.0546,1.0546,0,1.0705,1.0714,1.0687,1.0685,1.0675,1.0674,1.067,1.0638,1.0635,1.0617,1.0624,1.0618,1.0611,1.0608,1.0585,1.0577,1.0564,1.0593,1.0563,1.0571,1.0563,1.0562,1.0563,1.0599,1.06,1.0601,1.0602,0,1.0778,1.0764,1.0759,1.075,1.0746,1.0737,1.0726,1.0727,1.0692,1.069,1.0686,1.0681,1.0671,1.0665,1.0654,1.0641,1.0616,1.0612,1.0616,1.0624,1.0633,1.0627,1.0539,1.061,1.0609,1.0608,1.0608,1.0608,1.0835,1.0841,1.0822,1.0818,1.0806,1.0797,1.0799,1.078,1.0776,1.0765,1.0746,1.0745,1.0727,1.0709,1.0699,1.0697,1.0682,1.0688,1.069,1.0691,1.0695,1.0634,1.0695,1.0695,1.0694,1.0694,1.0694,0,1.0906,1.0892,1.0888,1.0873,1.087,1.0846,1.0832,1.0831,1.083,1.0816,1.081,1.0805,1.0799,1.0775,1.0766,1.0769,1.0757,1.0768,1.0766,1.0764,1.071,1.0707,1.0778,1.0778,1.0778,1.0778,1.0777,1.0777,1.0942,1.095,1.0934,1.0936,1.0921,1.0919,1.0913,1.0904,1.0892,1.0888,1.0883,1.0867,1.0849,1.0838,1.0831,1.0824,1.0822,1.0837,1.0826,1.0776,1.0768,1.076,1.0757,1.0837,1.0837,1.0879,1.088,1.088]}]]